This demonstration page uses our WeatherBlox Daily Observations layout. Learn more.

Left ArrowRight Arrow

39.51506, -84.39828

Hourly Observations for October 23, 2021

Temp ( °F °C ) Dew Point ( °F °C ) Humidity (%) Winds ( mph kmh ) Pressure ( in mb ) Visibility ( mi km ) Precip ( " mm )
12:15 am 00:15 Cloudy 52 11 N/A N/A SW 7 11 30.02 1016 7 11 N/A
12:35 am 00:35 Cloudy 52 11 N/A N/A SW 6 9 30.01 1016 7 11 N/A
12:55 am 00:55 Cloudy 52 11 N/A N/A SW 6 9 30.01 1016 7 11 N/A
1:15 am 01:15 Cloudy 52 11 N/A N/A SW 7 11 30.01 1016 7 11 N/A
1:35 am 01:35 Cloudy 52 11 N/A N/A SW 6 9 30.01 1016 7 11 N/A
1:55 am 01:55 Cloudy 52 11 N/A N/A SW 9 15 30.00 1016 10 16 N/A
2:15 am 02:15 Cloudy 52 11 N/A N/A WSW 7 11 30.01 1016 10 16 N/A
2:35 am 02:35 Cloudy 52 11 N/A N/A SW 9 15 30.01 1016 10 16 N/A
2:55 am 02:55 Cloudy 52 11 N/A N/A WSW 7 11 30.02 1016 10 16 N/A
3:15 am 03:15 Cloudy 51 10.8 51 10.8 100 100 WSW 8 13 30.02 1016 10 16 N/A
3:35 am 03:35 Cloudy 51 10.7 51 10.6 99 99 SW 8 13 30.02 1016 10 16 N/A
3:55 am 03:55 Cloudy 51 10.6 51 10.4 99 99 WSW 7 11 30.02 1017 10 16 N/A
4:15 am 04:15 Cloudy 51 10.4 50 10.2 99 99 WSW 7 11 30.02 1017 10 16 N/A
4:35 am 04:35 Cloudy 51 10.4 50 10 97 97 W 9 15 30.02 1017 10 16 N/A
4:55 am 04:55 Cloudy 50 10.2 49 9.7 97 97 W 7 11 30.03 1017 10 16 N/A
5:15 am 05:15 Cloudy 50 10.1 49 9.6 97 97 W 7 11 30.03 1017 10 16 N/A
5:35 am 05:35 Cloudy 50 10 49 9.6 97 97 W 5 7 30.04 1017 10 16 N/A
5:55 am 05:55 Cloudy 50 9.9 49 9.4 97 97 WNW 5 7 30.05 1018 10 16 N/A
6:15 am 06:15 Cloudy 50 9.8 48 9.1 95 95 WNW 5 7 30.05 1018 10 16 N/A
6:35 am 06:35 Cloudy 49 9.5 48 8.7 95 95 NW 5 7 30.05 1018 10 16 N/A
6:55 am 06:55 Cloudy 48 9 48 8.7 98 98 NW 3 6 30.06 1018 10 16 N/A
7:15 am 07:15 Cloudy 48 8.7 47 8.6 99 99 W 3 6 30.06 1018 10 16 N/A
7:35 am 07:35 Mostly Cloudy 45 7 N/A N/A W 3 6 30.07 1018 10 16 N/A
7:55 am 07:55 Clear 45 7 N/A N/A WSW 5 7 30.07 1018 10 16 N/A
8:15 am 08:15 Mostly Cloudy with Mist and Fog 43 6 N/A N/A SW 5 7 30.07 1018 1 2 N/A
8:35 am 08:35 Sunny 45 7 N/A N/A SW 5 7 30.08 1019 10 16 N/A
8:55 am 08:55 Sunny 48 9 N/A N/A SW 5 7 30.08 1019 10 16 N/A
9:15 am 09:15 Mostly Cloudy 49 9.5 48 9.1 97 97 SW 3 6 30.09 1019 10 16 N/A
9:35 am 09:35 Cloudy 50 10 50 9.8 99 99 SW 8 13 30.10 1019 10 16 N/A
9:55 am 09:55 Mostly Cloudy 50 9.9 50 9.8 99 99 SW 5 7 30.10 1019 10 16 N/A
10:15 am 10:15 Cloudy 51 10.4 49 9.4 94 94 WSW 9 15 30.10 1019 10 16 N/A
10:35 am 10:35 Cloudy 52 11.2 48 9.1 87 87 W 8 13 30.10 1019 10 16 N/A
10:55 am 10:55 Mostly Cloudy 53 11.5 47 8.3 81 81 WSW 9 15 30.10 1019 10 16 N/A
11:15 am 11:15 Mostly Cloudy 54 12.4 48 8.7 78 78 WSW 8 13 30.09 1019 10 16 N/A
11:35 am 11:35 Mostly Cloudy 54 12 47 8.5 79 79 SSW 9 15 30.09 1019 10 16 N/A
11:55 am 11:55 Mostly Cloudy 55 12.6 46 7.9 73 73 WSW 8 13 30.09 1019 10 16 N/A
12:15 pm 12:15 Mostly Cloudy 56 13.3 45 7.4 68 68 SW 9 15 30.09 1019 10 16 N/A
12:35 pm 12:35 Partly Cloudy 55 12.8 44 6.7 67 67 WSW 9 15 30.07 1018 10 16 N/A
12:55 pm 12:55 Sunny 57 14 44 6.6 61 61 WSW 8 13 30.06 1018 10 16 N/A
1:15 pm 13:15 Partly Cloudy 58 14.5 44 6.4 59 59 SSW 8 13 30.06 1018 10 16 N/A
1:35 pm 13:35 Partly Cloudy 59 15.1 44 6.7 57 57 SSW 10 17 30.06 1018 10 16 N/A
1:55 pm 13:55 Mostly Cloudy 59 15 44 6.9 59 59 SW 7 11 30.05 1017 10 16 N/A
2:15 pm 14:15 Cloudy 58 14.7 44 6.9 60 60 SW 6 9 30.04 1017 10 16 N/A
2:35 pm 14:35 Cloudy 58 14.7 44 6.5 58 58 SSW 10 17 30.03 1017 10 16 N/A
2:55 pm 14:55 Mostly Cloudy 60 15.3 44 6.7 57 57 SW 9 15 30.04 1017 10 16 N/A
3:15 pm 15:15 Cloudy 58 14.5 44 6.4 59 59 SSW 8 13 30.03 1017 10 16 N/A
3:35 pm 15:35 Cloudy 58 14.4 44 6.7 60 60 SW 8 13 30.03 1017 10 16 N/A
3:55 pm 15:55 Cloudy 58 14.2 44 6.7 61 61 WSW 8 13 30.04 1017 10 16 N/A
4:15 pm 16:15 Cloudy 57 14 44 6.7 62 62 WSW 8 13 30.04 1017 10 16 N/A
4:35 pm 16:35 Cloudy 57 13.8 45 7.1 64 64 SW 9 15 30.03 1017 10 16 N/A
4:55 pm 16:55 Cloudy 57 13.7 45 7.4 66 66 SW 7 11 30.03 1017 10 16 N/A
5:15 pm 17:15 Cloudy with Light Rain 56 13.4 45 7.2 66 66 SW 7 11 30.03 1017 10 16 N/A
5:35 pm 17:35 Cloudy 56 13.2 45 7.4 68 68 SW 6 9 30.03 1017 10 16 N/A
5:55 pm 17:55 Cloudy with Drizzle 55 12.7 47 8.3 75 75 W 3 6 30.02 1017 10 16 N/A
6:15 pm 18:15 Cloudy 55 12.6 48 9 79 79 N N/A 30.03 1017 10 16 N/A
6:35 pm 18:35 Cloudy 54 12.4 49 9.6 83 83 NNW 3 6 30.03 1017 10 16 N/A
6:55 pm 18:55 Cloudy 54 12.3 48 9 80 80 N 3 6 30.03 1017 10 16 N/A
7:15 pm 19:15 Cloudy 54 12.2 49 9.6 84 84 N N/A 30.03 1017 10 16 N/A
7:35 pm 19:35 Cloudy 54 12 49 9.5 85 85 NNE 3 6 30.03 1017 10 16 N/A
7:55 pm 19:55 Cloudy 53 11.8 50 10.1 89 89 N N/A 30.04 1017 10 16 N/A
8:15 pm 20:15 Cloudy 54 12 51 10.3 89 89 N N/A 30.04 1017 10 16 N/A
8:35 pm 20:35 Cloudy 53 11.7 51 10.4 92 92 N N/A 30.04 1017 10 16 N/A
8:55 pm 20:55 Cloudy 54 12 49 9.5 85 85 NE 5 7 30.03 1017 10 16 N/A
9:15 pm 21:15 Cloudy 53 11.9 49 9.6 86 86 NE 3 6 30.03 1017 10 16 N/A
9:35 pm 21:35 Cloudy 53 11.8 50 10.1 89 89 N 3 6 30.04 1017 10 16 N/A
9:55 pm 21:55 Cloudy 53 11.7 50 10.2 91 91 N 3 6 30.04 1017 10 16 N/A
10:15 pm 22:15 Cloudy 53 11.7 50 10.2 91 91 N N/A 30.04 1017 10 16 N/A
10:35 pm 22:35 Cloudy 53 11.5 51 10.5 94 94 NNE 6 9 30.05 1017 10 16 N/A
10:55 pm 22:55 Cloudy 54 12 49 9.2 83 83 ENE 6 9 30.04 1017 10 16 N/A
11:15 pm 23:15 Cloudy 53 11.9 48 8.9 82 82 NNE 5 7 30.05 1018 10 16 N/A
11:35 pm 23:35 Cloudy 53 11.9 49 9.3 84 84 SSW 3 6 30.05 1018 10 16 N/A
11:55 pm 23:55 Cloudy 54 12.1 47 8.5 79 79 N N/A 30.05 1018 10 16 N/A

Powered by AerisWeather